CZ-2D DEB, 44606

Orbit data source: Space-Track

CZ-2D DEB, 44606 is space debris in SSO originally from a launch on Fri, 11 Nov 2016 UTC launched from the Jiuquan Satellite Launch Center, China (JSC). Debris objects in space refer to the collection of defunct objects orbiting the Earth. Examples of debris include non-operational satellites, rocket bodies, and fragments generated from explosions, collisions, or faulty payload assembly.

Loading next visibility...
Identifier
44606, 2016-068F
Orbit
SSO
Country
Flag of CNCN / PRC
Related business
Manufacturer
Unknown
Mission
Spacecraft
Bus & Motor
Unknown
Mass
Unknown
Launch date (UTC)
2016-11-11 (9 years ago)
Launch vehicle
Unknown
Launch site
Jiuquan Satellite Launch Center, China (JSC)
Object type
Payload
Rocket body
Debris
Shape & HBR
Unknown shape, 0.1 m
Radar Cross Section
Small (<0.1 m²)

Expand to show TLE details & history
Last TLE update: 2 days ago

TLE from 2 days ago
0 CZ-2D DEB
1 44606U 16068F   26121.47841668  .00000375  00000-0  26068-3 0  9997
2 44606  98.4282 202.5564 0222546 336.1560  22.9416 13.92929729479933
Epoch: 2026-05-01T11:28Z
TLE epoch observation values (Epoch: 2026-05-01T11:28:55.201Z)
Latitude
-0°
Longitude
170.9163°
Altitude
772.271 km
Speed
7.544 km/s
True Right ascension
13h 30m 13s
True Declination
0° 00' 00"
Sunlit
Object was in full shadow at epoch
Visualization orbit readout
Latitude
Unknown
Longitude
Unknown
Altitude
Unknown
Speed
Unknown
Apparent Right ascension
Unknown
Apparent Declination
Unknown
Sunlit
N/A
Visualization observer readout
Local Sidereal Time
12:56:18
Azimuth
Unknown
Elevation
Unknown
Doppler factor
Unknown
Orbital elements
Apogee altitude
1,077.88 km
Perigee altitude
753.243 km
Semi-major axis
7,293.698 km
Eccentricity
0.02225
Inclination
98.4282°
RAAN
202.5564°
Arg. of periapsis
336.156°
True anomaly
23.9617°
Mean anomaly
22.9416°
Eccentric anomaly
23.449°
Mean motion
3.48435 °/min
Orbital period
103.32 mins
BSTAR
0.00026068
Loading maneuver chart data...
Computing Atmospheric mass density...
Loading historical data...
Loading historical data...
Loading historical data...
Loading historical data...
Loading historical data...
Loading historical data...
Loading historical data...

Documentation

Showing up to 5 results
|